GW3529 Weather Reports


time (UTC)temp
C
wind
direction
speed
KPH
gust
KPH
rain 1hr
cm
rain 24hr
cm
rain mn
cm
humidity
%
barometer
mb
20260906211509 29 148 4.8 22.5 0.08 0.08 0.08 40 1004.2
20260906210008 30 5 1.6 16.1 0.00 0.00 0.00 34 1004.7
20260906204507 30 160 8.0 29.0 0.00 0.00 0.00 34 1004.2
20260906203006 31 167 20.9 35.4 0.00 0.00 0.00 32 1004.2
20260906201506 32 210 17.7 35.4 0.00 0.00 0.00 33 1004.1
20260906200006 31 171 16.1 45.1 0.00 0.00 0.00 34 1003.9
20260906194504 32 161 22.5 38.6 0.00 0.00 0.00 32 1004.0
20260906193100 32 187 17.7 29.0 0.00 0.00 0.00 31 1003.8
20260906191600 32 151 20.9 45.1 0.00 0.00 0.00 32 1004.0
20260906190103 32 184 19.3 29.0 0.00 0.00 0.00 32 1004.1
20260906184612 32 178 12.9 32.2 0.00 0.00 0.00 31 1004.3
20260906183050 32 199 19.3 30.6 0.00 0.00 0.00 31 1004.5
20260906181550 32 168 20.9 30.6 0.00 0.00 0.00 32 1004.7
20260906180043 32 164 16.1 27.4 0.00 0.00 0.00 32 1004.9
20260906174544 32 185 14.5 20.9 0.00 0.00 0.00 32 1005.2
20260906173039 31 184 17.7 27.4 0.00 0.00 0.00 33 1005.4
20260906171540 31 146 16.1 27.4 0.00 0.00 0.00 33 1005.6
20260906170034 30 207 16.1 30.6 0.00 0.00 0.00 34 1005.8
20260906164537 31 147 16.1 22.5 0.00 0.00 0.00 34 1006.0
20260906163031 30 159 9.7 17.7 0.00 0.00 0.00 35 1006.2
20260906161529 30 175 14.5 22.5 0.00 0.00 0.00 35 1006.2
20260906160024 29 205 12.9 20.9 0.00 0.00 0.00 38 1006.3
20260906154520 28 154 12.9 17.7 0.00 0.00 0.00 39 1006.3
20260906153023 27 160 11.3 19.3 0.00 0.00 0.00 42 1006.3
20260906151511 27 152 16.1 20.9 0.00 0.00 0.00 43 1006.5
20260906150007 26 136 8.0 19.3 0.00 0.00 0.00 46 1006.6
20260906144504 26 170 8.0 11.3 0.00 0.00 0.00 47 1006.7
20260906143101 26 170 8.0 12.9 0.00 0.00 0.00 48 1006.8
20260906141606 25 166 6.4 9.7 0.00 0.00 0.00 50 1006.8
20260906140057 24 166 8.0 12.9 0.00 0.00 0.00 53 1006.7
20260906134605 23 170 8.0 14.5 0.00 0.00 0.00 55 1006.8
20260906133056 21 160 8.0 16.1 0.00 0.00 0.00 60 1006.8
20260906131553 20 204 4.8 8.0 0.00 0.00 0.00 64 1006.8
20260906130108 20 204 1.6 8.0 0.00 0.00 0.00 65 1006.6
20260906124549 20 201 9.7 14.5 0.00 0.00 0.00 63 1006.4
20260906123029 21 190 6.4 11.3 0.00 0.00 0.00 60 1006.3
20260906121518 21 194 0.0 4.8 0.00 0.00 0.00 62 1006.1
20260906120017 20 193 0.0 4.8 0.00 0.00 0.00 65 1006.0
20260906114516 20 193 1.6 4.8 0.00 0.00 0.00 61 1005.9
20260906113012 21 192 0.0 4.8 0.00 0.00 0.00 61 1005.9
20260906111511 21 191 0.0 6.4 0.00 0.00 0.00 59 1005.9
20260906110011 21 192 4.8 8.0 0.00 0.00 0.00 61 1006.0
20260906104511 22 195 3.2 9.7 0.00 0.00 0.00 56 1005.9
20260906103022 25 195 0.0 8.0 0.00 0.00 0.00 49 1005.9
20260906101508 25 194 3.2 11.3 0.00 0.00 0.00 49 1005.9
20260906100021 25 194 12.9 25.7 0.00 0.00 0.00 47 1005.8
20260906094505 25 157 16.1 29.0 0.00 0.00 0.00 48 1005.6
20260906093004 25 156 17.7 30.6 0.00 0.00 0.00 48 1005.6
20260906091503 25 148 17.7 29.0 0.00 0.00 0.00 47 1005.3
20260906090002 25 164 19.3 25.7 0.00 0.00 0.00 49 1005.4
20260906084558 24 156 14.5 24.1 0.00 0.00 0.00 53 1005.3
20260906083059 21 198 6.4 9.7 0.00 0.00 0.00 61 1005.3
20260906081554 22 187 6.4 11.3 0.00 0.00 0.00 57 1005.7
20260906080053 23 167 9.7 12.9 0.00 0.00 0.00 55 1005.7
20260906074553 24 167 9.7 19.3 0.00 0.00 0.00 54 1005.7
20260906073051 24 128 14.5 20.9 0.00 0.00 0.00 55 1005.8
20260906071550 24 167 8.0 17.7 0.00 0.00 0.00 55 1005.8
20260906070047 22 189 4.8 11.3 0.00 0.00 0.00 62 1005.5
20260906064545 22 189 4.8 9.7 0.00 0.00 0.00 60 1005.6
20260906063044 22 185 0.0 0.0 0.00 0.00 0.00 61 1005.5
20260906061542 22 184 0.0 0.0 0.00 0.00 0.00 58 1005.6
20260906060038 22 184 0.0 0.0 0.00 0.00 0.00 57 1005.9
20260906054539 21 184 0.0 6.4 0.00 0.00 0.00 57 1006.1
20260906053037 21 184 0.0 3.2 0.00 0.00 0.00 56 1006.2
20260906051533 22 184 0.0 0.0 0.00 0.00 0.00 53 1006.5
20260906050034 22 184 4.8 16.1 0.00 0.00 0.00 53 1006.5
20260906044531 22 136 3.2 11.3 0.00 0.00 0.00 53 1006.4
20260906043030 23 228 4.8 8.0 0.00 0.00 0.00 51 1006.0
20260906041529 25 185 1.6 4.8 0.00 0.00 0.00 47 1006.0
20260906040028 24 185 0.0 3.2 0.00 0.00 0.00 48 1006.2
20260906034528 24 185 0.0 0.0 0.00 0.00 0.00 47 1006.3
20260906033026 25 185 0.0 1.6 0.00 0.00 0.00 45 1006.4
20260906031526 27 185 3.2 11.3 0.00 0.00 0.00 41 1006.3
20260906030025 27 182 4.8 14.5 0.00 0.00 0.00 41 1006.0
20260906024524 27 178 12.9 16.1 0.00 0.00 0.00 41 1005.9
20260906023025 26 188 3.2 8.0 0.00 0.00 0.00 44 1005.5
20260906021535 26 182 6.4 11.3 0.00 0.00 0.00 43 1005.4
20260906020022 27 173 11.3 14.5 0.00 0.00 0.00 42 1005.2
20260906014522 27 180 8.0 11.3 0.00 0.00 0.00 39 1005.2
20260906013034 27 185 6.4 11.3 0.00 0.00 0.00 37 1005.4
20260906011520 28 169 6.4 11.3 0.00 0.00 0.00 36 1005.4
20260906010019 28 188 6.4 14.5 0.00 0.00 0.00 35 1005.5
20260906004518 29 172 20.9 32.2 0.00 0.00 0.00 33 1005.8
20260906003022 30 196 8.0 19.3 0.00 0.00 0.00 32 1005.7
20260906001517 30 188 8.0 17.7 0.00 0.00 0.00 32 1005.7
20260906000017 30 198 3.2 11.3 0.00 0.00 0.00 32 1005.4
20260905234515 30 205 6.4 14.5 0.00 0.00 0.00 32 1005.3
20260905233019 31 199 8.0 16.1 0.00 0.00 0.00 28 1005.0
20260905231514 32 225 11.3 17.7 0.00 0.00 0.00 26 1004.7
20260905230014 31 205 6.4 14.5 0.00 0.00 0.00 28 1004.7
20260905224517 31 204 3.2 16.1 0.00 0.00 0.00 31 1004.9
20260905223013 31 200 9.7 19.3 0.00 0.00 0.00 29 1004.7
20260905221513 31 221 6.4 12.9 0.00 0.00 0.00 29 1004.6
20260905220011 31 134 4.8 17.7 0.00 0.00 0.00 27 1004.7
20260905214510 32 143 4.8 12.9 0.00 0.00 0.00 29 1004.7
20260905213009 32 103 8.0 16.1 0.00 0.00 0.00 27 1004.7